Location: Eboldshausen
(51.7766°N, 10.0050°E)
Time: 06:16:50
(UTC+00:00)

ATLAS 5 CENTAUR R/B - Pass Details

Date: 15 November 2025
Orbit: 373 x 1090 km, 63.3° (Epoch: 10 December)

Event Time Altitude Azimuth Distance (km) Brightness Sun altitude
Rises 16:47:11 0° 312° (NW) 2,686 5.3 -11.9°
Reaches altitude 10° 16:49:12 10° 308° (NW) 1,887 4.6 -12.2°
Maximum altitude 16:53:23 57° 230° (SW) 788 2.4 -12.9°
Drops below altitude 10° 16:58:34 10° 153° (SSE) 2,332 4.4 -13.6°
Sets 17:01:18 0° 150° (SSE) 3,386 5.2 -14.1°
